[Iaude] MPEC F44: 2019 FC [a=1.78,e=0.78,i=2.9,H=24.1]

mpec at mpcdb1.cfa.harvard.edu mpec at mpcdb1.cfa.harvard.edu
Wed Mar 20 10:27:16 EDT 2019


M.P.E.C. 2019-F44                                Issued 2019 Mar. 20, 14:23 UT
 
     The Minor Planet Electronic Circulars contain information on unusual
         minor planets and routine data on comets.  They are published
    on behalf of Division F of the International Astronomical Union by the
          Minor Planet Center, Smithsonian Astrophysical Observatory,
                          Cambridge, MA 02138, U.S.A.

             Prepared using the Tamkin Foundation Computer Network

                              MPC at CFA.HARVARD.EDU
            URL https://www.minorplanetcenter.net/    ISSN 1523-6714


                                    2019 FC
 
Observations:
     K19F00C* C2019 03 17.18217 10 51 00.86 -13 13 27.6          17.6 GVEF044G96
     K19F00C  C2019 03 17.18734 10 51 00.45 -13 11 02.2          17.6 GVEF044G96
     K19F00C  C2019 03 17.19249 10 51 00.02 -13 08 38.1          17.6 GVEF044G96
     K19F00C  C2019 03 17.19763 10 50 59.60 -13 06 14.6          17.6 GVEF044G96
     K19F00C  C2019 03 17.27532610 50 51.87 -12 31 24.7          17.7 GVEF044H01
     K19F00C  C2019 03 17.27992410 50 51.48 -12 29 24.7          17.3 GVEF044H01
     K19F00C  C2019 03 17.29033010 50 50.61 -12 24 54.5          17.2 GVEF044H01
     K19F00C  C2019 03 17.29751110 50 50.02 -12 21 49.8          17.4 GVEF044H01
     K19F00C  C2019 03 17.33835 10 50 47.61 -12 04 32.7          17.5 GVEF044I52
     K19F00C  C2019 03 17.33848 10 50 47.58 -12 04 29.5          17.3 GVEF044I52
     K19F00C  C2019 03 17.33860 10 50 47.57 -12 04 26.5          17.4 GVEF044I52
     K19F00C  C2019 03 17.33873 10 50 47.58 -12 04 23.2          17.5 GVEF044I52
     K19F00C  C2019 03 17.40058710 50 43.16 -11 39 24.4          17.6 GVEF044H01
     K19F00C  C2019 03 17.40227 10 50 43.49 -11 38 41.0          17.7 GVEF044I52
     K19F00C  C2019 03 17.40240 10 50 43.50 -11 38 38.4          17.8 GVEF044I52
     K19F00C  C2019 03 17.40252 10 50 43.48 -11 38 35.6          17.6 GVEF044I52
     K19F00C  C2019 03 17.40265 10 50 43.49 -11 38 32.5          17.4 GVEF044I52
     K19F00C  C2019 03 17.41126110 50 42.69 -11 35 12.3          17.4 GVEF044H01
     K19F00C  C2019 03 17.42099510 50 42.31 -11 31 24.3          17.7 GVEF044H01
     K19F00C  C2019 03 17.42795810 50 42.06 -11 28 42.5          17.7 GVEF044H01
     K19F00C  C2019 03 17.63251 10 50 52.11 -10 16 40.7          18.2 VtEF044900
     K19F00C  C2019 03 17.63765 10 50 51.81 -10 15 00.4          18.5 VtEF044900
     K19F00C  C2019 03 17.64266 10 50 51.49 -10 13 22.3          17.6 VtEF044900
     K19F00C KC2019 03 17.90580 10 50 57.81 -08 56 18.2          17.9 RoEF044K88
     K19F00C KC2019 03 17.90981 10 50 57.63 -08 55 14.1          18.3 RoEF044K88
     K19F00C KC2019 03 17.91382 10 50 57.39 -08 54 09.9          18.2 RoEF044K88
     K19F00C KC2019 03 17.94181 10 50 55.32 -08 46 42.8          18.3 VtEF044L04
     K19F00C KC2019 03 17.94514810 50 58.07 -08 45 45.4          17.9 GVEF044C95
     K19F00C KC2019 03 17.94555910 50 59.11 -08 45 53.1          18.1 GVEF044J95
     K19F00C KC2019 03 17.94602 10 50 55.07 -08 45 36.2          17.9 VtEF044L04
     K19F00C KC2019 03 17.94843810 50 58.95 -08 45 08.1          18.4 GVEF044J95
     K19F00C KC2019 03 17.95092810 50 58.83 -08 44 29.4          18.5 GVEF044J95
     K19F00C KC2019 03 17.95251510 50 57.66 -08 43 49.9          18.4 GVEF044C95
     K19F00C KC2019 03 17.95303 10 50 54.73 -08 43 46.6          18.3 VtEF044L04
     K19F00C KC2019 03 17.95314510 50 58.52 -08 43 55.2          18.1 GVEF044Z80
     K19F00C KC2019 03 17.95928710 50 58.22 -08 42 19.2          17.8 GVEF044Z80
     K19F00C KC2019 03 17.95995110 50 57.34 -08 41 54.2          17.6 GVEF044C95
     K19F00C KC2019 03 17.96724510 50 57.94 -08 40 15.7          17.8 GVEF044Z80
     K19F00C KC2019 03 17.96727510 50 56.74 -08 40 00.6          17.8 GVEF044C95
     K19F00C KC2019 03 18.09956 10 51 04.77 -08 07 02.2          18.4 GVEF044W34
     K19F00C KC2019 03 18.10973 10 51 04.22 -08 04 39.6          18.2 GVEF044W34
     K19F00C KC2019 03 18.12079 10 51 03.61 -08 02 06.1          18.4 GVEF044W34
     K19F00C KC2019 03 18.12912 10 51 03.13 -08 00 10.5          18.3 GVEF044W34
     K19F00C KC2019 03 18.14843210 51 02.79 -07 55 54.2          18.4 VuEF044H21
     K19F00C KC2019 03 18.15105610 51 02.66 -07 55 18.4          18.4 VuEF044H21
     K19F00C KC2019 03 18.15367910 51 02.52 -07 54 42.7          18.7 VuEF044H21
     K19F00C  C2019 03 18.23686 10 51 02.05 -07 35 58.4          17.6 GVEF044I52
     K19F00C  C2019 03 18.23983 10 51 01.83 -07 35 21.5                VEF044I52
     K19F00C  C2019 03 18.24285 10 51 01.61 -07 34 43.4                VEF044I52
     K19F00C  C2019 03 18.24592 10 51 01.46 -07 34 02.9                VEF044I52
     K19F00C  C2019 03 18.32677810 50 56.20 -07 17 08.4          18.2 GVEF044H01
     K19F00C  C2019 03 18.33297510 50 55.88 -07 15 52.2          17.9 GVEF044H01
     K19F00C  C2019 03 18.34414110 50 55.33 -07 13 35.6          18.2 GVEF044H01
     K19F00C  C2019 03 18.35191710 50 54.98 -07 12 00.9          18.1 GVEF044H01
     K19F00C KC2019 03 18.90918 10 51 04.32 -05 36 23.1          18.4 RVEF044K61
     K19F00C KC2019 03 18.91049 10 51 04.22 -05 36 13.3          18.3 RVEF044K61
     K19F00C HC2019 03 19.02879 10 51 00.60 -05 19 06.7                VEF044204
     K19F00C KC2019 03 19.03310 10 51 00.48 -05 18 30.6          18.8 GVEF044204
     K19F00C KC2019 03 19.03742 10 51 00.35 -05 17 54.7                VEF044204
 
Observer details:
204 Schiaparelli Observatory.  Observer L. Buzzi.  0.84-m f/3.5 reflector +
    CCD.
900 Moriyama.  Observer Y. Ikari.  0.26-m f/7.0 reflector + CCD.
C95 SATINO Remote Observatory, Haute Provence.  Observer J. Jahn.  0.60-m
    f/3.2 Newtonian reflector + CCD.
G96 Mt. Lemmon Survey.  Observer B. M. Africano.  Measurers B. M. Africano,
    E. J. Christensen, G. A. Farneth, D. C. Fuls, A. R. Gibbs, A. D. Grauer,
    H. Groeller, R. A. Kowalski, S. M. Larson, G. J. Leonard, T. A. Pruyne,
    R. L. Seaman, F. C. Shelly.  1.5-m reflector + 10K CCD.
H01 Magdalena Ridge Observatory, Socorro.  Observers W. H. Ryan, E. V. Ryan.
    Measurer W. H. Ryan.  2.4-m f/8.9 Ritchey-Chretien + CCD.
H21 Astronomical Research Observatory, Westfield.  Observer R. Holmes.
    Measurers S. Foglia, L. Buzzi, T. Linder, R. Holmes.  0.81-m f/4.0
    astrograph + CCD.
I52 Steward Observatory, Mt. Lemmon Station.  Observer G. J. Leonard.
    Measurers B. M. Africano, E. J. Christensen, G. A. Farneth, D. C. Fuls,
    A. R. Gibbs, A. D. Grauer, H. Groeller, R. A. Kowalski, S. M. Larson,
    G. J. Leonard, T. A. Pruyne, R. L. Seaman, F. C. Shelly.  1.0-m reflector
    + CCD.
J95 Great Shefford.  Observer P. Birtwhistle.  0.41-m f/6.3
    Schmidt-Cassegrain + CCD.
K61 Rokycany Observatory.  Observers M. Adamovsky, L. Machuldova.  Measurer
    M. Adamovsky.  0.51-m f/6.8 reflector + CCD.
K88 GINOP-KHK, Piszkesteto.  Observer K. Sarneczky.  0.60-m Schmidt + CCD.
L04 ROASTERR-1 Observatory, Cluj-Napoca.  Observer L. Hudin.  0.3-m f/5
    reflector + CCD.
W34 Squirrel Valley Observatory, Columbus.  Observer R. L. Flynn.  0.2-m
    f/7.0 Schmidt-Cassegrain + CCD.
Z80 Northolt Branch Observatory.  Observer G. Wells.  Measurer D. Bamberger.
    0.25-m f/8.0 Ritchey-Chretien + CCD.
 
Orbital elements:
2019 FC                                                  Earth MOID = 0.0086 AU
Epoch 2019 Apr. 27.0 TT = JDT 2458600.5                 MPC
M  36.56570              (2000.0)            P               Q
n   0.41664941     Peri.   76.53291     +0.48568319     -0.87402820
a   1.7753700      Node   344.38774     +0.78109216     +0.44094865
e   0.7831101      Incl.    2.90894     +0.39243708     +0.20405633
P   2.37           H   24.1           G   0.15           U   6
Residuals in seconds of arc
190317 G96  0.1+  0.1-    190317 900  0.9-  0.3+    190318 W34  0.2+  0.0
190317 G96  0.2+  0.1-    190317 900  0.2-  0.2-    190318 W34  0.1+  0.6-
190317 G96  0.0   0.1-    190317 900  0.1+  0.0     190318 W34  0.1-  0.4-
190317 G96  0.0   0.1+    190317 K88  0.2+  0.1+    190318 H21  0.4-  0.1-
190317 H01  0.1-  0.1+    190317 K88  0.7+  0.2-    190318 H21  0.3-  0.1-
190317 H01  0.1-  0.0     190317 K88  0.2+  0.3-    190318 H21  0.3-  0.2-
190317 H01  0.0   0.1+    190317 L04  0.3+  0.1-    190318 I52  0.7+  1.3+
190317 H01  0.0   0.3-    190317 C95  0.0   0.4-    190318 I52  0.1+  0.2-
190317 I52  0.1+  0.0     190317 J95  0.4+  0.1+    190318 I52  0.5-  1.0-
190317 I52  0.2-  0.0     190317 L04  0.3-  0.4+    190318 I52  0.0   0.1-
190317 I52  0.2-  0.0     190317 J95  0.1+  0.1+    190318 H01  0.1-  0.1+
190317 I52  0.1+  0.1+    190317 J95  0.0   0.1-    190318 H01  0.2-  0.1+
190317 H01  0.0   0.0     190317 C95  0.0   0.0     190318 H01  0.2-  0.1+
190317 I52  0.2-  0.5+    190317 L04  0.2-  0.1+    190318 H01  0.0   0.2+
190317 I52  0.1+  0.0     190317 Z80  0.6-  0.3-    190318 K61  0.1-  0.6+
190317 I52  0.2-  0.1-    190317 Z80  0.7-  0.2+    190318 K61  0.9-  1.2-
190317 I52  0.1+  0.0     190317 C95  1.5+  0.0     190319 204  0.1+  0.3+
190317 H01  0.0   0.1+    190317 Z80  0.7+  0.5+    190319 204  0.2+  0.3+
190317 H01  0.0   0.1+    190317 C95  1.4-  0.2+    190319 204  0.2+  0.1+
190317 H01  0.2-  0.1-    190318 W34  0.4+  0.1-

Ephemeris:
2019 FC                  a,e,i = 1.78, 0.78, 3                   q = 0.3851
Date    TT    R. A. (2000) Decl.     Delta      r     Elong.  Phase     V
2019 02 18    22 50 15.8 -05 27 07   0.4096  0.5967    13.2   157.8    31.3
...
2019 03 05    22 51 31.7 -07 11 32   0.1534  0.8385     2.4   177.2
...
2019 03 13    22 51 19.0 -19 58 59   0.03330 0.9624    19.2   160.1    27.6
...
2019 03 19    10 51 04.2 -05 21 20   0.05841 1.0515   163.6    15.5    18.9
2019 03 20    10 51 10.0 -03 29 05   0.07325 1.0660   163.4    15.5    19.4
2019 03 21    10 51 16.3 -02 14 36   0.08817 1.0805   162.8    15.8    19.9
...
2019 03 27    10 52 10.7 +00 48 51   0.1791  1.1651   157.5    19.1    21.7
...
2019 04 04    10 54 21.7 +01 55 34   0.3045  1.2731   150.1    23.0    23.1
...
2019 04 19    11 01 37.1 +02 11 38   0.5554  1.4612   137.2    27.8    24.9

A. U. Tomatic                (C) Copyright 2019 MPC           M.P.E.C. 2019-F44



More information about the Iaude mailing list